Location: Eindhoven
(51.4416°N, 5.4697°E)
Time: 05:40:24
(UTC+01:00)

deb Explorer IX - Pass Details

Date: 26 November 2019
Orbit: 546 x 1104 km, 38.8° (Epoch: 14 December)

Event Time Altitude Azimuth Distance (km) Brightness Sun altitude
Rises 00:36:18 0° 242° (WSW) 3,886 - -59.3°
Reaches altitude 10° 00:39:33 10° 231° (SW) 2,888 - -59.3°
Maximum altitude 00:45:15 27° 177° (S) 1,821 - -59.1°
Drops below altitude 10° 00:50:29 10° 123° (ESE) 2,628 - -59.0°
Sets 00:53:18 0° 111° (ESE) 3,477 - -58.9°
